Location: Aalsum
(53.3404°N, 6.0062°E)
Time: 10:34:11
(UTC+00:00)

Cosmos 1023 Rocket - Pass Details

Date: 28 January 2023
Orbit: 736 x 771 km, 74.1° (Epoch: 19 March)

Event Time Altitude Azimuth Distance (km) Brightness Sun altitude
Rises 18:15:44 0° 197° (SSW) 3,198 8.0 -18.4°
Reaches altitude 10° 18:18:06 10° 195° (SSW) 2,272 7.2 -18.8°
Maximum altitude 18:23:13 72° 113° (ESE) 790 4.3 -19.5°
Enters shadow 18:26:18 24° 33° (NNE) 1,505 5.7 -20.0°
